Вернуться в каталог

FENGYUN 1C DEB

АктивенPO
NORAD 30145·DEBRIS·🇨🇳 China

Запущен May 10, 1999 с Taiyuan Satellite Launch Center

Loading…

Ближайшие Пролёты (ближайшие 24 часа)

TLE

СвежийSource: Space-Track

Эпоха: Sep 14, 2026, 07:16 UTC

1 30145U 99025TA  26257.30334373  .00003225  00000-0  15780-2 0  9991
2 30145  99.2761  22.8030 0088236  94.4484 296.4165 14.16623900   931

Отслеживайте FENGYUN 1C DEB в реальном времени с AllMySat

Download on the App Store